TimeCST,TemperatureF,Dew PointF,Humidity,Sea Level PressureIn,VisibilityMPH,Wind Direction,Wind SpeedMPH,Gust SpeedMPH,PrecipitationIn,Events,Conditions,WindDirDegrees,DateUTC
12:00 AM,26.6,26.6,100,30.00,10.0,NE,12.7,-,N/A,,Clear,40,2012-11-30 06:00:00
12:20 AM,26.6,26.6,100,30.00,10.0,NE,12.7,-,N/A,,Clear,40,2012-11-30 06:20:00
12:40 AM,26.6,26.6,100,30.00,10.0,NE,9.2,-,N/A,,Clear,40,2012-11-30 06:40:00
1:00 AM,24.8,24.8,100,30.00,10.0,NE,11.5,-,N/A,,Clear,40,2012-11-30 07:00:00
1:20 AM,24.8,24.8,100,30.00,10.0,NE,10.4,-,N/A,,Clear,40,2012-11-30 07:20:00
1:40 AM,23.0,23.0,100,30.02,10.0,NE,9.2,-,N/A,,Clear,40,2012-11-30 07:40:00
2:00 AM,24.8,24.8,100,30.01,10.0,NE,11.5,-,N/A,,Clear,50,2012-11-30 08:00:00
2:20 AM,23.0,23.0,100,30.03,10.0,NNE,9.2,-,N/A,,Clear,30,2012-11-30 08:20:00
2:40 AM,23.0,23.0,100,30.04,10.0,NNE,6.9,-,N/A,,Clear,20,2012-11-30 08:40:00
3:00 AM,23.0,23.0,100,30.03,10.0,NE,6.9,-,N/A,,Clear,40,2012-11-30 09:00:00
3:20 AM,23.0,23.0,100,30.03,10.0,NE,8.1,-,N/A,,Clear,50,2012-11-30 09:20:00
3:40 AM,23.0,23.0,100,30.03,10.0,NE,9.2,-,N/A,,Clear,40,2012-11-30 09:40:00
4:00 AM,21.2,21.2,100,30.02,10.0,NE,10.4,-,N/A,,Clear,50,2012-11-30 10:00:00
4:20 AM,21.2,21.2,100,30.02,9.0,ENE,8.1,-,N/A,,Clear,60,2012-11-30 10:20:00
4:40 AM,19.4,19.4,100,30.06,9.0,West,4.6,-,N/A,,Clear,270,2012-11-30 10:40:00
5:00 AM,19.4,19.4,100,30.06,9.0,NNE,4.6,-,N/A,,Clear,30,2012-11-30 11:00:00
5:20 AM,17.6,17.6,100,30.07,6.0,North,8.1,-,N/A,,Clear,10,2012-11-30 11:20:00
5:40 AM,17.6,17.6,100,30.06,10.0,NE,8.1,-,N/A,,Clear,40,2012-11-30 11:40:00
6:00 AM,21.2,21.2,100,30.06,10.0,NE,9.2,-,N/A,,Clear,40,2012-11-30 12:00:00
6:20 AM,19.4,19.4,100,30.06,7.0,NE,8.1,-,N/A,,Scattered Clouds,40,2012-11-30 12:20:00
6:40 AM,21.2,21.2,100,30.06,5.0,ENE,8.1,-,N/A,,Overcast,60,2012-11-30 12:40:00
7:00 AM,23.0,23.0,100,30.05,2.0,ENE,9.2,-,N/A,,Overcast,70,2012-11-30 13:00:00
7:20 AM,23.0,23.0,100,30.07,1.0,NE,6.9,-,N/A,,Overcast,50,2012-11-30 13:20:00
7:40 AM,23.0,23.0,100,30.07,0.5,ENE,5.8,-,N/A,Fog,Light Freezing Fog,60,2012-11-30 13:40:00
8:00 AM,23.0,23.0,100,30.06,0.2,ENE,9.2,-,N/A,Fog,Light Freezing Fog,70,2012-11-30 14:00:00
8:20 AM,23.0,23.0,100,30.08,0.2,ENE,8.1,-,N/A,Fog,Light Freezing Fog,60,2012-11-30 14:20:00
8:40 AM,23.0,23.0,100,30.09,0.2,East,5.8,-,N/A,Fog,Light Freezing Fog,90,2012-11-30 14:40:00
9:00 AM,24.8,24.8,100,30.08,0.2,East,10.4,-,N/A,Fog,Light Freezing Fog,80,2012-11-30 15:00:00
9:20 AM,24.8,24.8,100,30.09,0.2,East,9.2,-,N/A,Fog,Light Freezing Fog,80,2012-11-30 15:20:00
9:40 AM,24.8,24.8,100,30.09,0.2,East,5.8,-,N/A,Fog,Light Freezing Fog,80,2012-11-30 15:40:00
10:00 AM,24.8,24.8,100,30.10,0.2,East,5.8,-,N/A,Fog,Light Freezing Fog,100,2012-11-30 16:00:00
10:20 AM,24.8,24.8,100,30.09,0.2,East,10.4,-,N/A,Fog,Light Freezing Fog,100,2012-11-30 16:20:00
10:40 AM,24.8,24.8,100,30.09,0.8,East,6.9,-,N/A,,Overcast,100,2012-11-30 16:40:00
11:00 AM,26.6,26.6,100,30.08,1.8,ESE,6.9,-,N/A,,Overcast,110,2012-11-30 17:00:00
11:20 AM,26.6,26.6,100,30.07,1.8,ESE,8.1,-,N/A,,Overcast,120,2012-11-30 17:20:00
11:40 AM,26.6,26.6,100,30.07,3.0,East,6.9,-,N/A,,Overcast,100,2012-11-30 17:40:00
12:00 PM,28.4,28.4,100,30.06,5.0,ESE,6.9,-,N/A,,Overcast,120,2012-11-30 18:00:00
12:20 PM,30.2,30.2,100,30.05,10.0,SSE,5.8,-,N/A,,Mostly Cloudy,160,2012-11-30 18:20:00
12:40 PM,32.0,32.0,100,30.04,10.0,SSE,6.9,-,N/A,,Partly Cloudy,160,2012-11-30 18:40:00
1:00 PM,32.0,32.0,100,30.03,10.0,SSE,9.2,-,N/A,,Clear,150,2012-11-30 19:00:00
1:20 PM,32.0,32.0,100,30.02,10.0,SSE,10.4,-,N/A,,Clear,150,2012-11-30 19:20:00
1:40 PM,33.8,33.8,100,30.00,10.0,SSE,10.4,-,N/A,,Clear,150,2012-11-30 19:40:00
2:00 PM,33.8,33.8,100,30.00,10.0,SE,10.4,-,N/A,,Clear,130,2012-11-30 20:00:00
2:20 PM,35.6,35.6,100,29.99,10.0,SSE,8.1,-,N/A,,Clear,160,2012-11-30 20:20:00
2:40 PM,37.4,35.6,93,29.99,10.0,SE,9.2,-,N/A,,Clear,140,2012-11-30 20:40:00
3:00 PM,37.4,35.6,93,29.98,10.0,SE,9.2,-,N/A,,Clear,130,2012-11-30 21:00:00
3:20 PM,37.4,33.8,87,29.98,10.0,SE,11.5,-,N/A,,Clear,140,2012-11-30 21:20:00
3:40 PM,37.4,32.0,81,29.98,10.0,SSE,6.9,-,N/A,,Clear,150,2012-11-30 21:40:00
4:00 PM,37.4,32.0,81,29.97,10.0,SSE,9.2,-,N/A,,Clear,150,2012-11-30 22:00:00
4:20 PM,35.6,33.8,93,29.97,10.0,SE,10.4,-,N/A,,Clear,140,2012-11-30 22:20:00
4:40 PM,35.6,32.0,87,29.97,10.0,SSE,8.1,-,N/A,,Clear,150,2012-11-30 22:40:00
5:00 PM,33.8,32.0,93,29.98,10.0,SSE,5.8,-,N/A,,Clear,150,2012-11-30 23:00:00
5:20 PM,32.0,32.0,100,29.97,10.0,SE,6.9,-,N/A,,Clear,140,2012-11-30 23:20:00
6:00 PM,32.0,32.0,100,29.95,10.0,SE,10.4,-,N/A,,Clear,140,2012-12-01 00:00:00
6:20 PM,32.0,32.0,100,29.94,10.0,SE,10.4,-,N/A,,Clear,140,2012-12-01 00:20:00
6:40 PM,32.0,32.0,100,29.93,10.0,SE,10.4,-,N/A,,Clear,130,2012-12-01 00:40:00
7:00 PM,32.0,32.0,100,29.92,10.0,SE,10.4,-,N/A,,Clear,140,2012-12-01 01:00:00
7:20 PM,32.0,32.0,100,29.92,10.0,SSE,15.0,-,N/A,,Clear,150,2012-12-01 01:20:00
7:40 PM,32.0,32.0,100,29.91,10.0,SSE,16.1,21.9,N/A,,Clear,150,2012-12-01 01:40:00
8:00 PM,32.0,32.0,100,29.90,10.0,SSE,18.4,23.0,N/A,,Clear,150,2012-12-01 02:00:00
8:20 PM,32.0,32.0,100,29.91,10.0,SSE,17.3,23.0,N/A,,Clear,160,2012-12-01 02:20:00
8:40 PM,33.8,33.8,100,29.92,10.0,South,15.0,19.6,N/A,,Clear,170,2012-12-01 02:40:00
9:00 PM,32.0,32.0,100,29.93,10.0,South,13.8,-,N/A,,Clear,180,2012-12-01 03:00:00
9:20 PM,32.0,32.0,100,29.91,10.0,South,13.8,-,N/A,,Clear,170,2012-12-01 03:20:00
9:40 PM,32.0,32.0,100,29.92,10.0,South,11.5,-,N/A,,Clear,170,2012-12-01 03:40:00
10:00 PM,32.0,32.0,100,29.92,10.0,South,12.7,-,N/A,,Clear,180,2012-12-01 04:00:00
10:20 PM,32.0,32.0,100,29.91,10.0,South,13.8,-,N/A,,Clear,170,2012-12-01 04:20:00
10:40 PM,32.0,32.0,100,29.90,10.0,South,13.8,19.6,N/A,,Clear,170,2012-12-01 04:40:00
11:00 PM,32.0,32.0,100,29.89,10.0,South,13.8,-,N/A,,Clear,170,2012-12-01 05:00:00
11:20 PM,32.0,32.0,100,29.89,10.0,South,16.1,-,N/A,,Clear,170,2012-12-01 05:20:00
11:40 PM,32.0,32.0,100,29.87,10.0,SSE,12.7,19.6,N/A,,Clear,160,2012-12-01 05:40:00